Weather observations for the past three days for
Daniel K Inouye International Airport
Imperial (Metric)
Date Time (hst) Wind (mph) Vis. (mi.) Weather Sky Cond. Temperature (ºF) Relative Humidity Wind Chill (°F) Heat Index (°F) Pressure Precipitation (in)
Air Dwpt 6 hour altimeter (in) sea level (mb) 1 hr 3 hr 6 hr
Max. Min.
18 04:53 NE 9 10.00 A Few Clouds FEW026 FEW040 75 64.9 71% 77 30.05 1017.5
18 03:53 NE 8 10.00 A Few Clouds FEW026 FEW040 75 66 74% 76 30.05 1017.5
18 02:53 E 9 10.00 A Few Clouds FEW024 FEW040 75.9 66 72% 77 30.05 1017.5
18 01:53 E 13 G 18 10.00 A Few Clouds FEW024 FEW040 75.9 66 77 75.9 72% 77 30.06 1017.7
18 00:53 NE 10 10.00 A Few Clouds FEW026 FEW040 75.9 66 72% 77 30.07 1018.3
17 23:53 E 14 10.00 A Few Clouds FEW026 FEW040 75.9 66 72% 77 30.09 1018.8
17 22:53 NE 10 10.00 Partly Cloudy FEW026 SCT044 77 66 69% 79 30.1 1019.1
17 21:53 NE 13 G 21 10.00 A Few Clouds FEW022 FEW042 77 64.9 66% 79 30.09 1018.9
17 20:53 E 10 10.00 A Few Clouds FEW020 FEW032 77 64.9 66% 79 30.08 1018.5
17 19:53 E 15 G 26 10.00 Partly Cloudy FEW025 SCT043 77 64.9 86 77 66% 79 30.07 1018.1
17 18:53 E 16 G 29 10.00 Mostly Cloudy FEW024 SCT038 BKN045 79 66 65% 81 30.06 1017.7
17 17:53 E 16 G 28 10.00 Partly Cloudy FEW022 FEW045 SCT050 80.1 64.9 60% 82 30.05 1017.5
17 16:53 E 21 G 29 10.00 Mostly Cloudy and Breezy FEW025 SCT038 BKN055 81 66 61% 83 30.06 1017.7
17 15:53 E 16 G 28 9.00 Mostly Cloudy FEW024 SCT047 BKN060 84 66 55% 86 30.06 1017.8
17 14:53 E 16 G 26 10.00 Partly Cloudy FEW023 FEW035 SCT043 84.9 64.9 51% 87 30.06 1017.8
17 13:53 NE 17 G 28 9.00 Partly Cloudy FEW026 FEW037 SCT045 84.9 64.9 86 78.1 51% 87 30.07 1018.3
17 12:53 E 16 G 28 10.00 Mostly Cloudy FEW033 SCT050 BKN060 82.9 68 61% 86 30.08 1018.6
17 11:53 NE 14 G 26 10.00 Partly Cloudy FEW025 SCT040 84.9 66 53% 87 30.1 1019.1
17 10:53 NE 21 10.00 Partly Cloudy and Breezy FEW025 SCT045 84 64 51% 85 30.1 1019.1
17 09:53 E 17 G 29 10.00 Mostly Cloudy FEW025 FEW045 BKN075 82 64.9 56% 84 30.11 1019.5
17 08:53 E 16 G 25 10.00 Partly Cloudy FEW025 SCT045 80.1 66 62% 82 30.11 1019.5
17 07:53 E 15 10.00 Partly Cloudy FEW024 FEW040 SCT055 79 66.9 79 73.9 67% 81 30.11 1019.5
17 06:53 NE 8 10.00 Mostly Cloudy FEW024 SCT035 BKN050 75.9 68 77% 77 30.09 1018.9
17 05:53 NE 8 10.00 Mostly Cloudy FEW022 SCT033 BKN050 73.9 68 82% 30.07 1018.4
17 04:53 NE 6 10.00 Partly Cloudy FEW020 SCT033 SCT045 75 66.9 76% 76 30.07 1018.1
17 03:53 NE 7 10.00 Partly Cloudy FEW020 SCT033 SCT042 75 66.9 76% 76 30.06 1018.0
17 02:53 NE 7 10.00 A Few Clouds FEW025 FEW042 73.9 66.9 79% 30.06 1017.8
17 01:53 NE 10 10.00 Light Rain FEW020 SCT033 SCT050 75 68 77 73.9 79% 76 30.07 1018.1
17 00:53 NE 8 10.00 Partly Cloudy FEW025 FEW035 SCT045 73.9 68 82% 30.08 1018.6
16 23:53 NE 9 10.00 Partly Cloudy FEW024 SCT037 SCT045 73.9 68 82% 30.09 1018.9
16 22:53 NE 7 10.00 Overcast BKN036 BKN060 OVC070 73.9 69.1 85% 30.1 1019.1
16 21:53 E 13 10.00 A Few Clouds FEW038 FEW055 77 66.9 71% 79 30.09 1018.8
16 20:53 E 14 10.00 Mostly Cloudy FEW025 SCT049 BKN070 77 64.9 66% 79 30.07 1018.2
16 19:53 NE 13 10.00 Partly Cloudy FEW025 SCT046 SCT060 77 64.9 86 75.9 66% 79 30.05 1017.7
16 18:53 NE 18 G 26 10.00 Partly Cloudy FEW026 SCT048 SCT060 79 64.9 62% 81 30.04 1017.2
16 17:53 NE 14 10.00 A Few Clouds FEW026 FEW045 81 64 57% 83 30.03 1016.7
16 16:53 NE 16 G 24 10.00 Partly Cloudy FEW022 FEW045 SCT060 82 63 53% 83 30.02 1016.3
16 15:53 E 16 G 31 10.00 Partly Cloudy FEW023 FEW046 SCT060 82 64.9 56% 84 30.02 1016.6
16 14:53 E 15 G 26 10.00 A Few Clouds FEW030 FEW060 84 63 49% 85 30.03 1016.8
16 13:53 E 15 G 23 10.00 Partly Cloudy FEW030 SCT060 86 63 86 79 46% 87 30.03 1017.0
16 12:53 E 17 G 30 10.00 A Few Clouds FEW029 FEW045 84.9 62.1 46% 85 30.05 1017.4
16 11:53 NE 16 G 26 10.00 Partly Cloudy FEW029 SCT045 86 63 46% 87 30.06 1017.9
16 10:53 E 18 G 28 10.00 A Few Clouds FEW030 FEW065 84.9 64 50% 86 30.08 1018.4
16 09:53 NE 17 G 25 10.00 A Few Clouds FEW029 FEW050 82.9 63 51% 84 30.08 1018.7
16 08:53 NE 18 10.00 A Few Clouds FEW029 FEW060 81 64 57% 83 30.09 1018.8
16 07:53 NE 13 10.00 A Few Clouds FEW027 FEW060 79 64.9 79 75.9 62% 81 30.09 1018.8
16 06:53 NE 10 10.00 Partly Cloudy FEW023 FEW035 SCT060 75.9 66 72% 77 30.07 1018.2
16 05:53 NE 9 10.00 Partly Cloudy FEW023 FEW037 SCT060 75.9 64.9 69% 78 30.06 1017.8
16 04:53 NE 13 G 22 10.00 A Few Clouds FEW023 FEW037 75.9 64 67% 78 30.05 1017.6
16 03:53 NE 14 10.00 Partly Cloudy FEW023 FEW037 SCT060 77 64.9 66% 79 30.05 1017.5
16 02:53 E 15 G 22 10.00 Mostly Cloudy FEW023 FEW035 BKN055 77 64.9 66% 79 30.05 1017.6
16 01:53 E 15 10.00 Mostly Cloudy FEW023 SCT035 BKN055 78.1 64.9 78.1 77 64% 80 30.06 1017.8
16 00:53 NE 9 10.00 Mostly Cloudy FEW023 SCT038 BKN055 77 66 69% 79 30.08 1018.4
15 23:53 E 13 10.00 Mostly Cloudy FEW025 SCT038 BKN055 77 66.9 71% 79 30.09 1018.8
15 22:53 NE 13 10.00 A Few Clouds FEW022 FEW036 77 66 69% 79 30.09 1018.8
15 21:53 NE 16 10.00 A Few Clouds FEW042 77 64.9 66% 79 30.08 1018.5
15 20:53 NE 15 G 23 10.00 A Few Clouds FEW036 78.1 64.9 64% 80 30.06 1017.9
15 19:53 NE 14 10.00 A Few Clouds FEW032 78.1 64.9 86 78.1 64% 80 30.05 1017.4
15 18:53 NE 18 G 28 10.00 A Few Clouds FEW020 FEW038 79 64.9 62% 81 30.03 1016.9
15 17:53 NE 18 G 26 10.00 A Few Clouds FEW036 FEW050 82 64 55% 84 30.02 1016.4
15 16:53 NE 17 10.00 Partly Cloudy FEW032 SCT050 82.9 64 53% 84 30.01 1016.0
15 15:53 E 15 G 26 10.00 Partly Cloudy FEW028 SCT055 84 64 51% 85 30.01 1016.2
15 14:53 NE 20 G 30 10.00 Partly Cloudy FEW026 SCT045 84.9 64.9 51% 87 30.02 1016.4
15 13:53 NE 20 G 28 10.00 A Few Clouds FEW026 FEW046 86 64 87.1 79 48% 87 30.03 1016.8
15 12:53 NE 17 G 29 10.00 Partly Cloudy FEW026 SCT045 84.9 63 48% 86 30.04 1017.2
15 11:53 NE 20 G 31 10.00 Mostly Cloudy FEW024 BKN045 84.9 64 50% 86 30.05 1017.4
15 10:53 NE 15 G 26 10.00 A Few Clouds FEW025 FEW043 84 63 49% 85 30.07 1018.2
15 09:53 NE 15 G 29 10.00 A Few Clouds FEW024 FEW040 82 64 55% 84 30.07 1018.3
15 08:53 E 16 10.00 Partly Cloudy FEW024 SCT040 81 63 54% 82 30.08 1018.5
15 07:53 NE 10 10.00 A Few Clouds FEW025 FEW040 79 64 79 75.9 60% 81 30.08 1018.5
15 06:53 E 14 10.00 A Few Clouds FEW025 FEW040 77 64 64% 79 30.07 1018.3
15 05:53 NE 14 10.00 Mostly Cloudy FEW024 SCT035 BKN050 77 64.9 66% 79 30.07 1018.0
Date Time (hst) Wind (mph) Vis. (mi.) Weather Sky Cond. Air Dwpt Max. Min. Relative Humidity Wind Chill (°F) Heat Index (°F) altimeter (in) sea level (mb) 1 hr 3 hr 6 hr
6 hour
Temperature (ºF) Pressure Precipitation (in)